sat.trackr.live / text

‹ back to catalog

STARLINK-31231

NORAD 59034 · 2024-038M

PAYLOAD ACTIVE UNKNOWN

§ Identity

Operator
Country
US
Launch date
2024-02-25
Launch site
AFETR
Launch vehicle
Mass (kg)
RCS (m²)

Purposes: comms

External: N2YO · Heavens-Above · Gunter

§ Orbital elements

Epoch: 2026-05-24T20:05:19.809312Z

Period
94.27 min
Inclination
43.0017°
Eccentricity
0.0000838
Mean motion
15.27570544 rev/d
Perigee alt
482.5 km
Apogee alt
483.7 km
Semi-major
6,861.2 km
B*
-7.1686e-6
RAAN
313.5553°
Arg perigee
287.1624°
Mean anomaly
72.9136°
Rev number
12,633

§ Raw data

STARLINK-312311 59034U 24038M   26144.83703483 -.00000459  00000+0 -71686-5 0  99932 59034  43.0017 313.5553 0000838 287.1624  72.9136 15.27570544126335

JSON: /api/v1/satellites/59034 · /tle

For live sub-satellite position, see the globe view (requires WebGL).

§ Visibility from observer

Set your observer location to see the next 7 days of passes ≥ 10°. The values pass through the URL so the page stays shareable.

No JS? Fill the form by hand. The geolocation button needs JavaScript.